Home   Weather   Mistelbach   Past weeks

Flag for Austria Past Weather in Mistelbach, Lower Austria, Austria — Yesterday and Last 2 Weeks

Now
30 °F

Fog.


Feels Like: 30 °F
Forecast: 26 / 41 °F
Wind: 1 mph from Southwest

Location: Wien / Hohe Warte

Current Time: Dec 8, 2016 at 7:09:04 pm

Latest Report: Dec 8, 2016 at 6:00 pm


Visibility: 2 mi

Pressure: 30.52 "Hg

Humidity: 95%

Dew Point: 29 °F

Location of MistelbachLocation

Past Weather in Mistelbach — Graph

°F

Mistelbach Temperature Yesterday

Maximum temperature yesterday: 38 °F (at 1:00 pm)
Minimum temperature yesterday: 28 °F (at 11:00 pm)
Average temperature yesterday: 33 °F

High & Low Weather Summary for the Past Weeks

 TemperatureHumidityPressure
High50 °F (Nov 23, 5:00 pm)98% (Nov 25, 1:00 am)30.71 "Hg (Nov 25, 1:00 am)
Low24 °F (Dec 4, 6:00 am)41% (Nov 30, 12:00 pm)29.80 "Hg (Dec 2, 7:00 am)
Average36 °F80%30.29 "Hg
* Reported Nov 23 5:00 pm — Dec 8 5:00 pm, Mistelbach, Weather by CustomWeather, © 2016

Note: Actual official high and low records may vary slightly from our data, if they occured in-between our weather recording intervals... More about our weather records

Advertising

Mistelbach Weather History for the Previous 24 Hours

Scroll right to see more
 ConditionsComfort  
Time TempWeatherWind HumidityBarometerVisibility
5:00 pm
Thu, Dec 8
30 °FFog.5 mph95%30.53 "Hg2 mi
4:00 pm30 °FFog.2 mph92%30.54 "Hg2 mi
3:00 pm31 °FFog.3 mph89%30.55 "Hg2 mi
2:00 pm31 °FFog.1 mph89%30.57 "Hg2 mi
1:00 pm31 °FFog.3 mph89%30.58 "Hg2 mi
12:00 pm31 °FFog.2 mph90%30.59 "Hg2 mi
11:00 am31 °FFog.1 mph91%30.62 "Hg2 mi
10:00 am30 °FFog.2 mph92%30.62 "Hg2 mi
9:00 am30 °FFog.1 mph93%30.64 "Hg2 mi
8:00 am29 °FFog.2 mph95%30.64 "Hg1 mi
7:00 am29 °FFog.2 mph95%30.63 "Hg1 mi
6:00 am29 °FFog.2 mph96%30.64 "Hg1 mi
5:00 am29 °FChilly.1 mph96%30.64 "HgN/A
4:00 am30 °FChilly.1 mph95%30.64 "HgN/A
2:00 am29 °FChilly.1 mph96%30.64 "HgN/A
1:00 am29 °FFog.1 mph97%30.65 "Hg2 mi
12:00 am30 °FChilly.2 mph94%30.66 "HgN/A
11:00 pm
Wed, Dec 7
28 °FChilly.1 mph94%30.65 "HgN/A
10:00 pm29 °FFog.2 mph93%30.65 "Hg3 mi
9:00 pm30 °FChilly.2 mph91%30.65 "HgN/A
8:00 pm31 °FChilly.2 mph88%30.64 "HgN/A
7:00 pm33 °FPassing clouds.1 mph86%30.64 "Hg6 mi
Weather by CustomWeather, © 2016

See weather overviewHow to use our weather pages